Overview Statistics Trail Chart Weather Telemetry Raw packets
 

This is the latest recevied weather packets stored in our database for station/object S56VIL-11. If no packets are shown the sender has not sent any weather packets the latest 10 day(s).

<< 10 11 12 13 14 15 16 >>
Time Temp. Humidity Pressure Rain* Wind** Luminosity Snow
1788360894 26.11° C 57% 1032 hPa - - - -
1788359994 27.22° C 57% 1032.1 hPa - - - -
1788359094 30° C 55% 1032.2 hPa - - - -
1788358194 32.78° C 53% 1032.3 hPa - - - -
1788357294 28.89° C 56% 1032.4 hPa - - - -
1788356394 26.67° C 56% 1032.5 hPa - - - -
1788355494 26.67° C 57% 1032.6 hPa - - - -
1788354594 26.67° C 56% 1032.7 hPa - - - -
1788353694 26.11° C 57% 1032.6 hPa - - - -
1788352794 25.56° C 57% 1032.8 hPa - - - -
1788351894 25.56° C 57% 1032.8 hPa - - - -
1788350994 25.56° C 57% 1033 hPa - - - -
1788350094 25° C 57% 1033.1 hPa - - - -
1788349194 25.56° C 57% 1033.3 hPa - - - -
1788348293 25° C 58% 1033.3 hPa - - - -
1788347393 25° C 58% 1033.3 hPa - - - -
1788346493 25.56° C 57% 1033.5 hPa - - - -
1788345593 26.67° C 59% 1033.7 hPa - - - -
1788344693 28.33° C 57% 1033.8 hPa - - - -
1788343793 28.33° C 57% 1033.8 hPa - - - -
1788342893 28.89° C 57% 1033.8 hPa - - - -
1788341993 28.89° C 57% 1034 hPa - - - -
1788341093 28.33° C 58% 1034 hPa - - - -
1788340193 28.33° C 58% 1034.1 hPa - - - -
1788339293 27.78° C 58% 1034.1 hPa - - - -

* Rain since midnight (hover to see other rain measurements)
** Current wind speed in m/s (hover to see current wind gust speed)